Skip Page Navigation
NASA JPL Caltech
NASA Logo - Jet Propulsion Laboratory + View the NASA Portal
+ Near-Earth Object (NEO) Program
Search JPL
JPL Home Earth Solar System Stars & Galaxies Technology
JPL Solar System Dynamics
BODIES ORBITS EPHEMERIDES TOOLS PHYSICAL DATA DISCOVERY FAQ SITE MAP
JPL Small-Body Database Browser
Search: [ help ]  
8362 (1990 QM1)
Classification: Main-belt Asteroid          SPK-ID: 2008362
Ephemeris | Orbit Diagram | Orbital Elements | Physical Parameters | Close-Approach Data ]

[ show orbit diagram ]
Orbital Elements at Epoch 2457000.5 (2014-Dec-09.0) TDB
Reference: JPL 14 (heliocentric ecliptic J2000)
 Element Value Uncertainty (1-sigma)   Units 
e .1864089605637525 6.0724e-08  
a 3.173097406518571 2.8936e-08 AU
q 2.581603617201905 1.8747e-07 AU
i 2.53065317588826 7.1913e-06 deg
node 147.06107769259 0.00013096 deg
peri 249.0295798596916 0.00013261 deg
M 64.21410578053937 1.8388e-05 deg
tp 2456632.242609499527
(2013-Dec-05.74260950)
0.00010498 JED
period 2064.541099945483
5.65
2.824e-05
7.732e-08
d
yr
n .1743728909099975 2.3852e-09 deg/d
Q 3.764591195835236 3.4329e-08 AU
  Orbit Determination Parameters
   # obs. used (total)      1011  
   data-arc span      12882 days (35.27 yr)  
   first obs. used      1979-11-16  
   last obs. used      2015-02-22  
   planetary ephem.      DE431  
   SB-pert. ephem.      SB431-BIG16  
   condition code      0  
   fit RMS      .54063  
   data source      ORB  
   producer      Otto Matic  
   solution date      2015-Mar-09 14:13:21  

Additional Information
 Earth MOID = 1.58967 AU 
 T_jup = 3.173 
[ show covariance matrix ]

Ephemeris | Orbit Diagram | Orbital Elements | Physical Parameters | Close-Approach Data ]

Physical Parameter Table
Parameter Symbol Value Units Sigma Reference Notes
absolute magnitude H 13.3 mag n/a MPO266002  

[ show close-approach data ]
Alternate Designations
 1990 QM1 = 1979 WU = 1996 TU10 
Ephemeris | Orbit Diagram | Orbital Elements | Physical Parameters | Close-Approach Data ]
ABOUT SSD CREDITS/AWARDS PRIVACY/COPYRIGHT GLOSSARY LINKS
FirstGov 2015-Mar-31 00:15 UT
(server date/time)  
NASA Home Page
Site Manager:   Ryan S. Park
Webmaster  Alan B. Chamberlin